Latest Weather Observations for Horsham AWS

IDV60801

Issued at 5:31 pm EDT Tuesday 31 March 2015 (issued every 30 minutes, with the page automatically refreshed every 10 minutes)

About weather observations | Map of weather stations | Latest weather observations for VIC | Other Formats
Station Details ID: 079100 Name: HORSHAM AERODROME Lat: -36.67 Lon: 142.17 Height: 133.8 m
Data from the previous 72 hours. | See also: Recent months at Horsham AWS
Date/Time
EDT
Temp
°C
App
Temp
°C
Dew
Point
Rel
Hum
%
Delta-T
°C
Wind Press
QNH
hPa
Press
MSL
hPa
Rain
since 9 am
mm
Dir
 
Spd
km/h
Gust
km/h
Spd
kts
Gust
kts
31/05:30pm 28.8 25.8 4.3 21 12.5 NNW 9 20 5 11 1020.8 1020.5 0.0
31/05:00pm 29.0 26.3 3.8 20 12.8 W 7 20 4 11 1021.0 1020.7 0.0
31/04:30pm 28.4 25.2 3.3 20 12.6 N 9 20 5 11 1021.2 1020.9 0.0
31/04:00pm 28.8 24.9 3.6 20 12.7 WNW 13 20 7 11 1021.5 1021.1 0.0
31/03:30pm 28.0 23.6 5.0 23 11.9 NW 17 28 9 15 1021.9 1021.6 0.0
31/03:00pm 27.8 24.7 5.4 24 11.6 NNW 11 24 6 13 1022.2 1021.9 0.0
31/02:30pm 27.2 24.1 5.5 25 11.3 W 11 17 6 9 1022.6 1022.3 0.0
31/02:00pm 27.1 23.7 4.2 23 11.6 NNE 11 20 6 11 1023.1 1022.8 0.0
31/01:30pm 25.9 22.8 5.5 27 10.5 NNW 11 19 6 10 1023.7 1023.4 0.0
31/01:00pm 25.9 22.9 6.0 28 10.3 N 11 20 6 11 1024.1 1023.8 0.0
31/12:30pm 24.3 21.2 7.4 34 8.9 N 13 22 7 12 1024.7 1024.4 0.0
31/12:00pm 23.9 20.9 7.9 36 8.5 NE 13 24 7 13 1025.1 1024.8 0.0
31/11:30am 23.3 19.9 9.3 41 7.6 NE 17 22 9 12 1025.6 1025.3 0.0
31/11:00am 22.6 19.6 9.4 43 7.1 ENE 15 24 8 13 1025.7 1025.4 0.0
31/10:30am 20.8 17.2 9.7 49 6.0 E 19 22 10 12 1025.8 1025.5 0.0
31/10:00am 18.7 15.4 9.5 55 4.9 ESE 17 20 9 11 1026.2 1025.9 0.0
31/09:30am 16.6 14.0 9.3 62 3.8 ESE 13 17 7 9 1026.4 1026.1 0.0
31/08:30am 9.9 8.1 7.0 82 1.4 SE 6 6 3 3 1026.0 1025.7 0.0
31/08:00am 7.0 4.1 4.8 86 1.0 SSE 9 11 5 6 1025.5 1025.2 0.0
31/07:30am 7.4 3.8 5.0 85 1.1 S 13 13 7 7 1025.7 1025.4 0.0
31/07:00am 8.2 5.5 5.5 83 1.2 SSW 9 11 5 6 1025.4 1025.1 0.0
31/06:30am 8.2 5.1 5.7 84 1.1 SSW 11 13 6 7 1025.2 1024.9 0.0
31/05:30am 9.8 7.2 6.3 79 1.6 S 9 11 5 6 1024.8 1024.5 0.0
31/05:00am 11.0 8.8 8.0 82 1.5 SE 9 11 5 6 1024.6 1024.3 0.0
31/04:30am 10.0 8.1 6.9 81 1.5 S 6 7 3 4 1024.6 1024.3 0.0
31/04:00am 10.4 7.9 6.5 77 1.8 S 9 11 5 6 1024.8 1024.5 0.0
31/03:30am 10.6 6.7 6.9 78 1.8 SE 17 17 9 9 1024.8 1024.5 0.0
31/03:00am 10.6 7.0 6.6 76 1.9 SE 15 17 8 9 1024.8 1024.5 0.0
31/02:30am 11.3 7.4 7.0 75 2.1 SE 17 19 9 10 1025.1 1024.8 0.0
31/02:00am 13.1 9.4 8.0 71 2.5 SE 17 20 9 11 1025.1 1024.8 0.0
31/01:30am 13.4 9.4 8.3 71 2.6 SE 19 20 10 11 1025.0 1024.7 0.0
31/01:00am 13.0 8.9 7.9 71 2.5 ESE 19 22 10 12 1025.1 1024.8 0.0
31/12:30am 11.7 7.6 6.4 70 2.5 ESE 17 17 9 9 1025.3 1025.0 0.0
31/12:00am 12.5 8.4 6.3 66 2.9 SE 17 19 9 10 1025.4 1025.1 0.0
 
Date/Time
EDT
Temp
°C
App
Temp
°C
Dew
Point
Rel
Hum
%
Delta-T
°C
Wind Press
QNH
hPa
Press
MSL
hPa
Rain
since 9 am
mm
Dir
 
Spd
km/h
Gust
km/h
Spd
kts
Gust
kts
30/11:30pm 12.0 8.0 5.0 62 3.2 SE 15 17 8 9 1025.7 1025.4 0.0
30/11:00pm 13.3 9.9 5.9 61 3.5 S 13 15 7 8 1025.6 1025.3 0.0
30/10:30pm 14.9 11.6 6.5 57 4.1 S 13 15 7 8 1025.5 1025.2 0.0
30/10:00pm 14.7 10.9 6.0 56 4.2 S 15 17 8 9 1025.4 1025.1 0.0
30/09:30pm 15.3 11.9 5.8 53 4.6 SSW 13 19 7 10 1025.2 1024.9 0.0
30/09:00pm 18.3 14.3 6.8 47 5.8 SW 17 19 9 10 1024.8 1024.5 0.0
30/08:30pm 17.8 13.6 5.7 45 5.9 SSW 17 19 9 10 1024.6 1024.3 0.0
30/08:00pm 19.2 15.4 5.6 41 6.7 SSW 15 17 8 9 1024.2 1023.9 0.0
30/07:30pm 21.4 17.2 5.7 36 7.9 SSW 17 19 9 10 1023.9 1023.6 0.0
30/07:00pm 23.6 19.5 6.0 32 9.0 SSW 17 22 9 12 1023.7 1023.4 0.0
30/06:30pm 24.8 20.2 5.6 29 9.8 SSW 19 24 10 13 1023.4 1023.1 0.0
30/05:30pm 25.5 20.5 3.5 24 10.9 SW 19 24 10 13 1023.0 1022.7 0.0
30/05:00pm 25.4 21.2 4.0 25 10.7 S 15 24 8 13 1022.9 1022.6 0.0
30/04:30pm 25.3 22.5 5.0 27 10.3 SW 9 17 5 9 1023.0 1022.7 0.0
30/04:00pm 25.4 22.3 5.6 28 10.1 SSW 11 22 6 12 1023.1 1022.8 0.0
30/03:30pm 25.5 22.1 5.7 28 10.2 SW 13 20 7 11 1023.3 1023.0 0.0
30/03:00pm 24.3 20.7 5.1 29 9.7 W 13 28 7 15 1023.6 1023.3 0.0
30/02:30pm 24.3 20.7 6.6 32 9.2 WSW 15 22 8 12 1023.8 1023.5 0.0
30/02:00pm 23.3 19.7 6.6 34 8.6 WNW 15 22 8 12 1024.2 1023.9 0.0
30/01:30pm 23.7 20.1 6.9 34 8.8 WNW 15 24 8 13 1024.6 1024.3 0.0
30/01:00pm 22.6 20.3 7.6 38 7.8 W 9 15 5 8 1024.9 1024.6 0.0
30/12:30pm 22.3 19.8 8.1 40 7.5 W 11 20 6 11 1025.1 1024.8 0.0
30/12:00pm 21.4 19.2 8.0 42 7.0 WSW 9 19 5 10 1025.3 1025.0 0.0
30/11:30am 20.9 18.3 7.9 43 6.8 WSW 11 17 6 9 1025.5 1025.2 0.0
30/11:00am 19.8 17.2 7.9 46 6.1 SSW 11 17 6 9 1025.6 1025.3 0.0
30/10:30am 19.0 16.5 8.1 49 5.6 S 11 17 6 9 1025.4 1025.1 0.0
30/10:00am 17.2 14.9 8.9 58 4.3 SSW 11 13 6 7 1025.3 1025.0 0.0
30/09:30am 15.9 13.6 9.1 64 3.5 SSW 11 13 6 7 1025.1 1024.8 0.0
30/09:00am 14.5 12.6 9.1 70 2.8 S 9 13 5 7 1024.7 1024.4 0.0
30/08:30am 11.2 9.4 8.1 81 1.5 S 7 11 4 6 1024.5 1024.2 0.0
30/08:00am 7.7 4.4 4.5 80 1.4 SSW 11 13 6 7 1024.1 1023.8 0.0
30/07:30am 8.8 5.9 6.4 85 1.1 SW 11 13 6 7 1023.9 1023.6 0.0
30/07:00am 7.6 6.4 4.7 82 1.3 CALM 0 2 0 1 1023.7 1023.4 0.0
30/06:30am 7.7 5.2 3.9 77 1.6 WSW 6 7 3 4 1023.4 1023.1 0.0
30/06:00am 9.6 7.0 6.3 80 1.5 WSW 9 11 5 6 1023.4 1023.1 0.0
30/05:30am 9.9 7.3 6.1 77 1.8 SW 9 17 5 9 1023.2 1022.9 0.0
30/05:00am 11.3 9.6 7.4 77 1.9 S 6 7 3 4 1023.0 1022.7 0.0
30/04:30am 10.7 8.3 6.8 77 1.9 SSE 9 9 5 5 1022.9 1022.6 0.0
30/04:00am 12.2 8.2 8.1 76 2.0 SE 19 20 10 11 1022.9 1022.6 0.0
30/03:30am 11.3 8.1 7.0 75 2.1 SE 13 17 7 9 1023.0 1022.7 0.0
30/03:00am 11.9 9.8 6.8 71 2.4 ESE 7 11 4 6 1023.0 1022.7 0.0
30/02:30am 12.4 10.4 6.2 66 3.0 SSE 6 7 3 4 1023.2 1022.9 0.0
30/02:00am 12.6 10.7 6.6 67 2.9 S 6 7 3 4 1023.2 1022.9 0.0
30/01:30am 13.5 11.4 6.6 63 3.3 S 7 11 4 6 1023.2 1022.9 0.0
30/01:00am 12.4 10.1 5.6 63 3.2 SSE 7 9 4 5 1023.3 1023.0 0.0
30/12:30am 11.9 8.3 5.1 63 3.1 SE 13 15 7 8 1023.4 1023.1 0.0
30/12:00am 12.9 9.4 5.3 60 3.5 SSW 13 15 7 8 1023.2 1022.9 0.0
 
Date/Time
EDT
Temp
°C
App
Temp
°C
Dew
Point
Rel
Hum
%
Delta-T
°C
Wind Press
QNH
hPa
Press
MSL
hPa
Rain
since 9 am
mm
Dir
 
Spd
km/h
Gust
km/h
Spd
kts
Gust
kts
29/11:30pm 14.9 11.1 5.7 54 4.4 SW 15 19 8 10 1023.5 1023.2 0.0
29/11:00pm 15.8 12.0 6.0 52 4.7 WSW 15 17 8 9 1023.4 1023.1 0.0
29/10:30pm 16.1 12.3 5.7 50 5.0 WSW 15 17 8 9 1023.2 1022.9 0.0
29/10:00pm 16.3 13.2 5.6 49 5.2 SW 11 13 6 7 1022.9 1022.6 0.0
29/09:30pm 14.8 11.4 3.9 48 5.0 SW 11 13 6 7 1022.7 1022.4 0.0
29/09:00pm 16.9 14.4 4.9 45 5.7 WSW 7 11 4 6 1022.5 1022.2 0.0
29/08:30pm 19.8 16.7 5.5 39 7.1 W 11 13 6 7 1022.0 1021.7 0.0
29/08:00pm 20.4 17.3 5.6 38 7.3 W 11 13 6 7 1021.8 1021.5 0.0
29/07:30pm 21.3 17.8 5.6 36 7.9 W 13 17 7 9 1021.5 1021.1 0.0
29/07:00pm 21.2 18.9 5.5 36 7.8 WNW 7 11 4 6 1021.1 1020.8 0.0
29/06:30pm 23.0 19.6 5.9 33 8.7 SW 13 19 7 10 1020.8 1020.5 0.0
29/06:00pm 24.1 20.8 6.4 32 9.1 SW 13 19 7 10 1020.6 1020.3 0.0
29/05:30pm 24.0 20.6 5.8 31 9.3 WNW 13 19 7 10 1020.5 1020.2 0.0
29/05:00pm 24.8 20.7 6.1 30 9.6 WSW 17 26 9 14 1020.3 1020.0 0.0
29/04:30pm 25.0 20.9 6.2 30 9.8 W 17 22 9 12 1020.5 1020.2 0.0
29/04:00pm 24.4 20.7 6.2 31 9.4 WNW 15 24 8 13 1020.6 1020.3 0.0
29/03:30pm 24.3 21.4 6.6 32 9.2 WNW 11 22 6 12 1020.9 1020.6 0.0
29/03:00pm 23.0 18.9 6.3 34 8.5 W 17 28 9 15 1021.2 1020.9 0.0
29/02:30pm 22.9 19.2 6.2 34 8.6 WSW 15 26 8 14 1021.6 1021.3 0.0
29/02:00pm 23.1 19.0 6.4 34 8.6 WSW 17 30 9 16 1022.1 1021.8 0.0
29/01:30pm 21.5 17.7 5.8 36 7.9 WNW 15 26 8 14 1022.5 1022.2 0.0
29/01:00pm 21.8 18.6 6.9 38 7.6 WNW 13 24 7 13 1022.7 1022.4 0.0
29/12:30pm 20.6 18.5 6.5 40 7.2 NW 7 13 4 7 1023.1 1022.8 0.0
29/12:00pm 20.3 18.5 8.0 45 6.4 E 7 9 4 5 1023.4 1023.1 0.0
29/11:30am 18.9 16.3 7.7 48 5.8 SSW 11 17 6 9 1023.6 1023.3 0.0
29/11:00am 18.6 16.9 8.3 51 5.3 SSW 7 11 4 6 1023.8 1023.5 0.0
29/10:30am 17.0 15.4 7.9 55 4.6 SW 6 9 3 5 1023.8 1023.5 0.0
29/10:00am 15.6 13.9 7.6 59 4.0 NE 6 9 3 5 1023.8 1023.5 0.0
29/09:30am 14.1 12.3 7.9 66 3.1 E 7 9 4 5 1023.6 1023.3 0.0
29/09:00am 11.1 9.4 7.4 78 1.8 ESE 6 7 3 4 1023.5 1023.2 0.0
29/08:30am 7.4 5.7 6.0 91 0.6 ESE 4 7 2 4 1023.2 1022.9 0.0
29/08:00am 5.1 2.1 4.1 93 0.4 SSE 9 11 5 6 1022.9 1022.6 0.0
29/07:30am 5.8 3.3 4.9 94 0.4 S 7 7 4 4 1022.5 1022.2 0.0
29/07:00am 4.5 0.9 3.2 91 0.5 S 11 11 6 6 1022.2 1021.9 0.0
29/06:30am 5.0 0.7 3.3 89 0.7 SSW 15 17 8 9 1022.1 1021.8 0.0
29/06:00am 5.7 3.5 3.4 85 1.0 SSE 4 9 2 5 1021.8 1021.5 0.0
29/05:30am 6.0 4.0 4.3 89 0.7 E 4 7 2 4 1021.5 1021.1 0.0
29/05:00am 5.8 3.1 2.8 81 1.2 NE 6 6 3 3 1021.0 1020.7 0.0
29/04:30am 5.6 2.3 2.3 79 1.3 ENE 9 9 5 5 1020.9 1020.6 0.0
29/04:00am 5.6 1.6 2.9 83 1.1 ENE 13 13 7 7 1020.7 1020.4 0.0
29/03:30am 6.0 2.4 2.8 80 1.3 ENE 11 11 6 6 1020.9 1020.6 0.0
29/03:00am 6.2 3.9 2.5 77 1.5 ESE 4 7 2 4 1021.2 1020.9 0.0
29/02:30am 8.3 6.1 5.1 80 1.4 SSW 6 6 3 3 1021.8 1021.5 0.0
29/02:00am 8.5 6.2 4.9 78 1.6 SE 6 7 3 4 1021.9 1021.6 0.0
29/01:30am 7.6 4.2 4.0 78 1.6 E 11 13 6 7 1021.9 1021.6 0.0
29/01:00am 8.1 4.3 4.1 76 1.7 E 13 13 7 7 1021.9 1021.6 0.0
29/12:30am 9.2 6.3 4.8 74 2.0 E 9 11 5 6 1022.0 1021.7 0.0
29/12:00am 9.5 6.3 5.3 75 1.9 ESE 11 13 6 7 1022.1 1021.8 0.0
 
Date/Time
EDT
Temp
°C
App
Temp
°C
Dew
Point
Rel
Hum
%
Delta-T
°C
Wind Press
QNH
hPa
Press
MSL
hPa
Rain
since 9 am
mm
Dir
 
Spd
km/h
Gust
km/h
Spd
kts
Gust
kts
28/11:30pm 10.1 7.8 5.5 73 2.1 ESE 7 9 4 5 1022.4 1022.1 0.0
28/11:00pm 9.3 6.3 4.3 71 2.2 ESE 9 11 5 6 1022.6 1022.3 0.0
28/10:30pm 10.2 7.4 5.2 71 2.3 ESE 9 11 5 6 1022.6 1022.3 0.0
28/10:00pm 10.6 6.9 4.5 66 2.7 ESE 13 13 7 7 1022.5 1022.2 0.0
28/09:30pm 10.9 7.7 5.0 67 2.7 ESE 11 13 6 7 1022.4 1022.1 0.0
28/09:00pm 12.0 9.4 5.9 66 2.9 SSE 9 11 5 6 1022.3 1022.0 0.0
28/08:30pm 13.5 10.7 7.1 65 3.1 SSE 11 11 6 6 1022.2 1021.9 0.0
28/08:00pm 13.2 9.8 5.9 61 3.5 SSE 13 15 7 8 1022.1 1021.8 0.0
28/07:30pm 15.4 12.1 6.4 55 4.4 S 13 15 7 8 1022.1 1021.8 0.0
28/07:00pm 18.9 18.0 7.7 48 5.7 ENE 2 6 1 3 1021.8 1021.5 0.0
28/06:30pm 19.4 17.2 7.8 47 6.0 SW 9 13 5 7 1021.7 1021.4 0.0
28/06:00pm 19.4 17.8 7.8 47 6.0 SW 6 11 3 6 1021.9 1021.6 0.0

Other Formats:

Comma delimited format used in spreadsheet applications
http://www.bom.gov.au/fwo/IDV60801/IDV60801.95839.axf

JavaScript Object Notation format (JSON) in row-major order
http://www.bom.gov.au/fwo/IDV60801/IDV60801.95839.json